Home   Weather   Jülich   Past weeks

Flag for Germany Past Weather in Jülich, North Rhine-Westphalia, Germany — Yesterday and Last 2 Weeks

Now
63 °F

Clear.


Feels Like: 63 °F
Forecast: 60 / 74 °F
Wind: 5 mph from South

Location: Geilenkirchen Airport

Current Time: Sep 28, 2016 at 2:11:32 AM

Latest Report: Sep 28, 2016 at 12:50 AM


Visibility: 10 mi

Pressure: 30.30 "Hg

Humidity: 52%

Dew Point: 45 °F

Location of JülichLocation

Past Weather in Jülich — Graph

°F

Jülich Temperature Yesterday

Maximum temperature yesterday: 73 °F (at 3:50 PM)
Minimum temperature yesterday: 46 °F (at 5:50 AM)
Average temperature yesterday: 59 °F

High & Low Weather Summary for the Past Weeks

 TemperatureHumidityPressure
High93 °F (Sep 13, 4:50 PM)100% (Sep 27, 3:50 AM)30.33 "Hg (Sep 27, 3:50 AM)
Low43 °F (Sep 22, 5:50 AM)30% (Sep 13, 4:50 PM)29.80 "Hg (Sep 15, 3:50 PM)
Average64 °F70%30.09 "Hg
* Reported Sep 13 12:50 AM — Sep 28 12:50 AM, Jülich, Weather by CustomWeather, © 2016

Note: Actual official high and low records may vary slightly from our data, if they occured in-between our weather recording intervals... More about our weather records

Advertising

Jülich Weather History for the Previous 24 Hours

Scroll right to see more
 ConditionsComfort  
Time TempWeatherWind HumidityBarometerVisibility
12:50 AM
Wed, Sep 28
63 °FClear.5 mph52%30.30 "Hg10 mi
11:50 PM
Tue, Sep 27
61 °FClear.5 mph55%30.33 "Hg10 mi
10:50 PM61 °FClear.7 mph59%30.33 "Hg10 mi
9:50 PM57 °FClear.6 mph72%30.33 "Hg10 mi
8:50 PM57 °FClear.2 mph77%30.30 "Hg10 mi
7:50 PM61 °FClear.2 mph68%30.30 "Hg10 mi
6:50 PM66 °FSunny.1 mph56%30.30 "Hg10 mi
5:50 PM72 °FSunny.3 mph44%30.30 "Hg10 mi
4:50 PM72 °FSunny.5 mph47%30.30 "Hg10 mi
3:50 PM73 °FSunny.7 mph44%30.30 "Hg10 mi
2:50 PM72 °FSunny.2 mph47%30.30 "Hg10 mi
1:50 PM70 °FPassing clouds.2 mph50%30.33 "HgN/A
12:50 PM68 °FSunny.5 mph56%30.33 "Hg10 mi
11:50 AM66 °FSunny.3 mph60%30.33 "Hg10 mi
10:50 AM63 °FSunny.1 mph68%30.33 "Hg10 mi
9:50 AM59 °FSunny.2 mph77%30.33 "Hg10 mi
8:50 AM52 °FSunny.1 mph94%30.33 "Hg10 mi
7:50 AM46 °FFog.No wind100%30.30 "HgN/A
6:50 AM48 °FPassing clouds.No wind94%30.30 "Hg6 mi
5:50 AM46 °FPassing clouds.No wind100%30.27 "Hg4 mi
4:50 AM48 °FPassing clouds.1 mph94%30.27 "Hg4 mi
3:50 AM48 °FPassing clouds.1 mph100%30.27 "Hg5 mi
2:50 AM50 °FClear.2 mph94%30.27 "Hg10 mi
Weather by CustomWeather, © 2016

See weather overviewHow to use our weather pages